| time (UTC) | temp F | wind direction | speed knots | gust knots | rain 1hr in | rain 24hr in | rain mn in | humidity % | barometer mb |
| 20260504224642 | 71 | 304 | 0.0 | 0.0 | 0.00 | 0.00 | 0.00 | 65 | 1012.4 |
| 20260504224138 | 71 | 304 | 0.0 | 0.0 | 0.00 | 0.00 | 0.00 | 65 | 1012.4 |
| 20260504223636 | 71 | 307 | 0.0 | 0.9 | 0.00 | 0.00 | 0.00 | 67 | 1012.5 |
| 20260504223131 | 71 | 300 | 0.0 | 0.0 | 0.00 | 0.00 | 0.00 | 65 | 1012.4 |
| 20260504222628 | 71 | 308 | 1.7 | 1.7 | 0.00 | 0.00 | 0.00 | 67 | 1012.6 |
| 20260504222125 | 70 | 294 | 0.0 | 0.9 | 0.00 | 0.00 | 0.00 | 67 | 1012.4 |
| 20260504221622 | 70 | 298 | 1.7 | 1.7 | 0.00 | 0.00 | 0.00 | 66 | 1012.8 |
| 20260504221120 | 70 | 305 | 0.9 | 1.7 | 0.00 | 0.00 | 0.00 | 65 | 1012.5 |
| 20260504220616 | 70 | 306 | 1.7 | 1.7 | 0.00 | 0.00 | 0.00 | 66 | 1012.7 |
| 20260504220114 | 70 | 310 | 0.9 | 0.9 | 0.00 | 0.00 | 0.00 | 67 | 1012.9 |
| 20260504215609 | 70 | 314 | 0.0 | 0.0 | 0.00 | 0.00 | 0.00 | 70 | 1012.8 |
| 20260504215107 | 70 | 288 | 0.0 | 0.0 | 0.00 | 0.00 | 0.00 | 66 | 1012.9 |
| 20260504214603 | 70 | 243 | 0.9 | 1.7 | 0.00 | 0.00 | 0.00 | 69 | 1013.0 |
| 20260504214059 | 69 | 304 | 0.0 | 0.9 | 0.00 | 0.00 | 0.00 | 68 | 1013.1 |
| 20260504213556 | 69 | 315 | 0.9 | 0.9 | 0.00 | 0.00 | 0.00 | 70 | 1013.2 |
| 20260504213053 | 69 | 102 | 0.9 | 2.6 | 0.00 | 0.00 | 0.00 | 69 | 1013.1 |
| 20260504212548 | 69 | 280 | 0.0 | 0.0 | 0.00 | 0.00 | 0.00 | 68 | 1013.1 |
| 20260504212046 | 68 | 300 | 0.0 | 0.0 | 0.00 | 0.00 | 0.00 | 68 | 1013.3 |
| 20260504211543 | 68 | 170 | 0.9 | 1.7 | 0.00 | 0.00 | 0.00 | 70 | 1013.6 |
| 20260504211040 | 68 | 100 | 0.9 | 1.7 | 0.00 | 0.00 | 0.00 | 72 | 1013.3 |
| 20260504210537 | 68 | 108 | 1.7 | 2.6 | 0.00 | 0.00 | 0.00 | 68 | 1013.7 |
| 20260504210033 | 68 | 289 | 1.7 | 1.7 | 0.00 | 0.00 | 0.00 | 70 | 1013.6 |
| 20260504205531 | 68 | 312 | 0.0 | 0.0 | 0.00 | 0.00 | 0.00 | 69 | 1013.6 |
| 20260504205029 | 68 | 321 | 0.0 | 0.0 | 0.00 | 0.00 | 0.00 | 70 | 1013.7 |
| 20260504204527 | 67 | 283 | 0.9 | 1.7 | 0.00 | 0.00 | 0.00 | 69 | 1013.7 |
| 20260504204026 | 66 | 312 | 0.9 | 0.9 | 0.00 | 0.00 | 0.00 | 72 | 1014.1 |
| 20260504203524 | 68 | 314 | 3.5 | 5.2 | 0.00 | 0.00 | 0.00 | 68 | 1014.0 |
| 20260504203021 | 68 | 246 | 0.0 | 0.0 | 0.00 | 0.00 | 0.00 | 72 | 1014.0 |
| 20260504202516 | 67 | 336 | 0.0 | 0.0 | 0.00 | 0.00 | 0.00 | 70 | 1014.0 |
| 20260504202013 | 68 | 285 | 0.0 | 0.9 | 0.00 | 0.00 | 0.00 | 70 | 1014.2 |
| 20260504201510 | 67 | 317 | 0.0 | 0.9 | 0.00 | 0.00 | 0.00 | 72 | 1014.1 |
| 20260504201008 | 66 | 286 | 0.0 | 0.0 | 0.00 | 0.00 | 0.00 | 72 | 1014.2 |
| 20260504200504 | 64 | 301 | 0.9 | 0.9 | 0.00 | 0.00 | 0.00 | 75 | 1014.2 |
| 20260504200001 | 67 | 310 | 2.6 | 5.2 | 0.00 | 0.00 | 0.00 | 70 | 1014.4 |
| 20260504195457 | 67 | 317 | 0.0 | 0.0 | 0.00 | 0.00 | 0.00 | 69 | 1014.6 |
| 20260504194954 | 66 | 315 | 0.9 | 0.9 | 0.00 | 0.00 | 0.00 | 74 | 1014.4 |
| 20260504194450 | 67 | 111 | 2.6 | 2.6 | 0.00 | 0.00 | 0.00 | 71 | 1014.6 |
| 20260504193946 | 65 | 271 | 0.0 | 0.0 | 0.00 | 0.00 | 0.00 | 74 | 1014.5 |
| 20260504193443 | 63 | 304 | 0.0 | 0.9 | 0.00 | 0.00 | 0.00 | 74 | 1014.3 |
| 20260504192942 | 68 | 293 | 0.0 | 0.9 | 0.00 | 0.00 | 0.00 | 67 | 1014.4 |
| 20260504192438 | 67 | 298 | 0.0 | 0.0 | 0.00 | 0.00 | 0.00 | 71 | 1014.7 |
| 20260504191938 | 65 | 290 | 0.0 | 0.0 | 0.00 | 0.00 | 0.00 | 73 | 1014.5 |
| 20260504191435 | 64 | 308 | 0.9 | 0.9 | 0.00 | 0.00 | 0.00 | 73 | 1014.6 |
| 20260504190930 | 62 | 212 | 0.9 | 1.7 | 0.00 | 0.00 | 0.00 | 79 | 1014.6 |
| 20260504190426 | 62 | 122 | 0.9 | 0.9 | 0.00 | 0.00 | 0.00 | 78 | 1014.9 |
| 20260504185923 | 61 | 280 | 0.9 | 0.9 | 0.00 | 0.00 | 0.00 | 78 | 1014.6 |
| 20260504185420 | 62 | 297 | 2.6 | 4.3 | 0.00 | 0.00 | 0.00 | 78 | 1014.8 |
| 20260504184916 | 63 | 302 | 0.0 | 1.7 | 0.00 | 0.00 | 0.00 | 76 | 1014.8 |
| 20260504184412 | 62 | 300 | 0.0 | 0.0 | 0.00 | 0.00 | 0.00 | 79 | 1014.9 |
| 20260504183908 | 61 | 303 | 1.7 | 1.7 | 0.00 | 0.00 | 0.00 | 78 | 1014.9 |
| 20260504183405 | 61 | 304 | 0.0 | 0.9 | 0.00 | 0.00 | 0.00 | 80 | 1014.7 |
| 20260504182903 | 62 | 299 | 0.9 | 0.9 | 0.00 | 0.00 | 0.00 | 77 | 1014.8 |
| 20260504182400 | 62 | 300 | 0.9 | 0.9 | 0.00 | 0.00 | 0.00 | 78 | 1014.7 |
| 20260504181856 | 61 | 313 | 0.0 | 0.0 | 0.00 | 0.00 | 0.00 | 81 | 1014.8 |
| 20260504181354 | 60 | 311 | 0.0 | 0.0 | 0.00 | 0.00 | 0.00 | 81 | 1014.6 |
| 20260504180853 | 60 | 299 | 2.6 | 2.6 | 0.00 | 0.00 | 0.00 | 80 | 1014.8 |
| 20260504180351 | 60 | 310 | 0.9 | 1.7 | 0.00 | 0.00 | 0.00 | 81 | 1014.7 |
| 20260504175849 | 61 | 310 | 1.7 | 2.6 | 0.00 | 0.00 | 0.00 | 79 | 1014.7 |
| 20260504175345 | 60 | 299 | 0.0 | 0.0 | 0.00 | 0.00 | 0.00 | 83 | 1014.9 |
| 20260504174844 | 60 | 305 | 0.0 | 0.9 | 0.00 | 0.00 | 0.00 | 82 | 1014.6 |
| 20260504174341 | 60 | 318 | 0.0 | 0.9 | 0.00 | 0.00 | 0.00 | 82 | 1014.7 |
| 20260504173838 | 59 | 307 | 0.9 | 1.7 | 0.00 | 0.00 | 0.00 | 82 | 1014.7 |
| 20260504173334 | 60 | 314 | 0.9 | 1.7 | 0.00 | 0.00 | 0.00 | 82 | 1014.6 |
| 20260504172831 | 59 | 303 | 0.0 | 0.9 | 0.00 | 0.00 | 0.00 | 82 | 1014.8 |
| 20260504172328 | 59 | 292 | 0.0 | 0.0 | 0.00 | 0.00 | 0.00 | 83 | 1014.8 |
| 20260504171824 | 59 | 308 | 0.9 | 0.9 | 0.00 | 0.00 | 0.00 | 83 | 1014.7 |
| 20260504171321 | 59 | 305 | 0.9 | 0.9 | 0.00 | 0.00 | 0.00 | 83 | 1014.8 |
| 20260504170819 | 59 | 293 | 0.9 | 0.9 | 0.00 | 0.00 | 0.00 | 84 | 1014.9 |
| 20260504170315 | 59 | 314 | 0.9 | 0.9 | 0.00 | 0.00 | 0.00 | 84 | 1014.5 |
| 20260504160233 | 58 | 297 | 0.0 | 0.0 | 0.00 | 0.00 | 0.00 | 86 | 1014.8 |
| 20260504150659 | 56 | 326 | 1.7 | 1.7 | 0.00 | 0.00 | 0.00 | 88 | 1014.4 |
| 20260504150156 | 56 | 290 | 0.9 | 0.9 | 0.00 | 0.00 | 0.00 | 88 | 1014.3 |
| 20260504141124 | 57 | 291 | 0.0 | 0.0 | 0.00 | 0.00 | 0.00 | 86 | 1013.6 |
| 20260504140621 | 56 | 290 | 0.0 | 0.9 | 0.00 | 0.00 | 0.00 | 89 | 1013.6 |
| 20260504140117 | 55 | 297 | 0.0 | 0.0 | 0.00 | 0.00 | 0.00 | 92 | 1013.6 |
| 20260504130545 | 53 | 288 | 0.0 | 0.0 | 0.00 | 0.00 | 0.00 | 93 | 1012.7 |
| 20260504110433 | 57 | 287 | 0.0 | 0.0 | 0.00 | 0.00 | 0.00 | 84 | 1011.2 |
| 20260504100355 | 60 | 287 | 0.0 | 0.0 | 0.00 | 0.00 | 0.00 | 80 | 1010.3 |
| 20260504081748 | 62 | 294 | 0.0 | 0.0 | 0.00 | 0.00 | 0.00 | 73 | 1009.6 |
| 20260504081245 | 62 | 294 | 0.0 | 0.0 | 0.00 | 0.00 | 0.00 | 72 | 1009.6 |
| 20260504080741 | 62 | 294 | 0.0 | 0.0 | 0.00 | 0.00 | 0.00 | 71 | 1009.5 |
| 20260504080238 | 62 | 294 | 0.0 | 0.0 | 0.00 | 0.00 | 0.00 | 72 | 1009.3 |
| 20260504070205 | 65 | 294 | 0.0 | 0.9 | 0.00 | 0.00 | 0.00 | 63 | 1009.0 |
| 20260504060126 | 71 | 306 | 0.0 | 0.0 | 0.00 | 0.00 | 0.00 | 51 | 1008.5 |
| 20260504050554 | 75 | 308 | 0.0 | 0.0 | 0.00 | 0.00 | 0.00 | 44 | 1008.2 |
| 20260504045548 | 75 | 310 | 0.9 | 0.9 | 0.00 | 0.00 | 0.00 | 47 | 1008.5 |
| 20260504045043 | 75 | 295 | 0.0 | 0.9 | 0.00 | 0.00 | 0.00 | 47 | 1008.4 |
| 20260504044541 | 75 | 304 | 0.0 | 0.0 | 0.00 | 0.00 | 0.00 | 46 | 1008.5 |
| 20260504044038 | 75 | 311 | 0.0 | 0.0 | 0.00 | 0.00 | 0.00 | 45 | 1008.3 |
| 20260504043534 | 75 | 307 | 0.0 | 0.9 | 0.00 | 0.00 | 0.00 | 48 | 1008.2 |
| 20260504043032 | 75 | 285 | 0.0 | 0.0 | 0.00 | 0.00 | 0.00 | 48 | 1008.1 |
| 20260504042529 | 75 | 291 | 0.0 | 0.0 | 0.00 | 0.00 | 0.00 | 49 | 1008.3 |
| 20260504042026 | 75 | 290 | 0.0 | 0.9 | 0.00 | 0.00 | 0.00 | 48 | 1008.1 |
| 20260504041522 | 75 | 301 | 0.0 | 0.0 | 0.00 | 0.00 | 0.00 | 48 | 1008.0 |
| 20260504041018 | 76 | 304 | 0.0 | 0.0 | 0.00 | 0.00 | 0.00 | 47 | 1008.1 |
| 20260504040516 | 76 | 302 | 0.0 | 0.0 | 0.00 | 0.00 | 0.00 | 47 | 1008.1 |
| 20260504040012 | 76 | 302 | 0.0 | 0.0 | 0.00 | 0.00 | 0.00 | 46 | 1008.1 |
| 20260504035509 | 77 | 291 | 0.0 | 0.0 | 0.00 | 0.00 | 0.00 | 46 | 1008.0 |
| 20260504035005 | 77 | 295 | 0.0 | 0.0 | 0.00 | 0.00 | 0.00 | 45 | 1007.7 |
| 20260504034503 | 77 | 281 | 0.0 | 0.0 | 0.00 | 0.00 | 0.00 | 45 | 1007.9 |
| 20260504034000 | 78 | 293 | 0.0 | 0.0 | 0.00 | 0.00 | 0.00 | 44 | 1007.6 |
| 20260504033457 | 78 | 313 | 0.0 | 0.0 | 0.00 | 0.00 | 0.00 | 43 | 1007.7 |
| 20260504032955 | 78 | 283 | 0.0 | 0.0 | 0.00 | 0.00 | 0.00 | 43 | 1007.4 |
| 20260504032452 | 79 | 283 | 0.9 | 0.9 | 0.00 | 0.00 | 0.00 | 43 | 1007.5 |
| 20260504031948 | 80 | 283 | 0.0 | 0.0 | 0.00 | 0.00 | 0.00 | 42 | 1007.6 |
| 20260504031445 | 80 | 303 | 0.0 | 0.9 | 0.00 | 0.00 | 0.00 | 42 | 1007.6 |
| 20260504030942 | 80 | 298 | 0.0 | 0.0 | 0.00 | 0.00 | 0.00 | 40 | 1007.3 |
| 20260504030439 | 80 | 313 | 0.0 | 0.9 | 0.00 | 0.00 | 0.00 | 40 | 1007.5 |
| 20260504025934 | 81 | 303 | 0.0 | 0.0 | 0.00 | 0.00 | 0.00 | 39 | 1007.6 |
| 20260504025432 | 82 | 297 | 0.0 | 0.9 | 0.00 | 0.00 | 0.00 | 37 | 1007.5 |
| 20260504024929 | 82 | 299 | 0.0 | 0.0 | 0.00 | 0.00 | 0.00 | 36 | 1007.3 |
| 20260504024426 | 83 | 295 | 0.0 | 0.0 | 0.00 | 0.00 | 0.00 | 36 | 1007.4 |
| 20260504023923 | 84 | 279 | 0.9 | 0.9 | 0.00 | 0.00 | 0.00 | 34 | 1007.5 |
| 20260504023419 | 84 | 293 | 0.0 | 0.0 | 0.00 | 0.00 | 0.00 | 35 | 1007.5 |
| 20260504022915 | 85 | 341 | 0.0 | 0.0 | 0.00 | 0.00 | 0.00 | 35 | 1007.3 |